Погода в Митрофановке

Россия / Воронежская область     51°00′07″N   40°21′59″E
В апреле 2022 года жителям России запретили посещать сайт meteo.paraplan.net по решению Генеральной прокуратуры. Аудитория сайта уменьшилась в 10 раз. Владельцы сайта не видят смысла в поддержке погодного сервера в таких условиях. Сайт будет закрыт в октябре.
темп.,
°C
ветер,
м/с
пор.,
м/с
влажн.,
%
обл.,
%
осадки,
мм/ч
давл.,
гПа
погр.,
м
4 октября, вт
вт400:00+11ю4117525 0.0 1012312
03:00+10ююв41078100 0.0 1013212
06:00+10ююв41171100 0.0 1013267
09:00+14ююв7126898 0.0 1014625
12:00+15ю71160100 0.0 10141488
15:00+16ю7116076 0.0 10141205
18:00+13ю6126992 0.1 1015553
21:00+12ююз497973 0.5 1016305
5 октября, ср
ср500:00+10юз378879 0.1 1017160
03:00+9юз4985100 0.1 1018285
06:00+7ююз49875 0.0 1018250
09:00+10юз611715 0.0 1019660
12:00+13зюз7106086 0.0 10191430
15:00+13зюз7106297 0.2 10191489
18:00+10зсз497838 0.3 1021725
21:00+9зюз488698 0.4 1021372
6 октября, чт
чт600:00+9з488096 0.2 1022479
03:00+8з498278 0.3 1022427
06:00+7зюз4987100 0.0 1022367
09:00+9зюз4986100 0.1 1022554
12:00+11з587999 0.1 1023698
15:00+14з586651 0.2 10221155
18:00+11зюз378399 0.0 1023133
21:00+10юз358836 0.0 102390
7 октября, пт
пт700:00+11юз3785100 0.0 1023162
03:00+11зюз378317 0.0 1023215
06:00+9зюз37915 0.0 1023139
09:00+12з58765 0.0 1023355
12:00+16зсз56625 0.0 1023814
15:00+18сз456145 0.0 10231088
18:00+16ссз466999 0.0 1025242
21:00+11с368736 0.0 1026102
8 октября, сб
сб800:00+10ссв22880 0.0 102729
03:00+9св22900 0.0 102728
06:00+8всв22910 0.0 102826
09:00+12в23730 0.0 1028267
12:00+16вюв33490 0.0 1026878
15:00+18юв33423 0.0 10241178
18:00+14вюв33576 0.0 102421
21:00+12юв357311 0.0 102469